Time,TemperatureF,DewpointF,PressureIn,WindDirection,WindDirectionDegrees,WindSpeedMPH,WindSpeedGustMPH,Humidity,HourlyPrecipIn,Conditions,Clouds,dailyrainin,SoftwareType,DateUTC
2013-03-08 00:04:00,32.5,20.2,17.72,NNE,24,0.0,0.0,60,0.00,,FEW006,0.00,VWS V14.00,2013-03-08 08:04:00,
2013-03-08 00:10:00,32.5,20.2,17.72,NNE,24,0.0,0.0,60,0.00,,FEW006,0.00,VWS V14.00,2013-03-08 08:10:00,
2013-03-08 00:15:00,32.7,20.4,17.72,NNE,24,0.0,0.0,60,0.00,,FEW006,0.00,VWS V14.00,2013-03-08 08:15:00,
2013-03-08 00:21:00,32.7,20.4,17.72,NNE,24,0.0,0.0,60,0.00,,FEW006,0.00,VWS V14.00,2013-03-08 08:21:00,
2013-03-08 00:27:00,32.7,20.4,17.72,NNE,24,0.0,0.0,60,0.00,,FEW006,0.00,VWS V14.00,2013-03-08 08:27:00,
2013-03-08 00:32:00,32.5,20.6,17.72,NNE,24,0.0,0.0,61,0.00,,FEW006,0.00,VWS V14.00,2013-03-08 08:32:00,
2013-03-08 00:38:00,32.5,20.6,17.72,NNE,24,0.0,0.0,61,0.00,,FEW006,0.00,VWS V14.00,2013-03-08 08:38:00,
2013-03-08 00:44:00,32.7,20.8,17.72,NNE,24,0.0,0.0,61,0.00,,FEW006,0.00,VWS V14.00,2013-03-08 08:44:00,
2013-03-08 00:49:00,32.9,20.9,17.72,NNE,24,0.0,0.0,61,0.00,,FEW006,0.00,VWS V14.00,2013-03-08 08:49:00,
2013-03-08 00:55:00,33.1,21.5,17.72,NNE,24,0.0,0.0,62,0.00,,FEW006,0.00,VWS V14.00,2013-03-08 08:55:00,
2013-03-08 01:00:00,33.1,21.5,17.72,NNE,24,0.0,0.0,62,0.00,,FEW006,0.00,VWS V14.00,2013-03-08 09:00:00,
2013-03-08 01:06:00,32.7,21.1,17.72,NNE,24,0.0,0.0,62,0.00,,OVC004,0.00,VWS V14.00,2013-03-08 09:06:00,
2013-03-08 01:11:00,32.7,21.1,17.72,NNE,24,0.0,0.0,62,0.00,,OVC004,0.00,VWS V14.00,2013-03-08 09:11:00,
2013-03-08 01:17:00,32.5,21.0,17.72,NNE,24,0.0,0.0,62,0.00,,OVC004,0.00,VWS V14.00,2013-03-08 09:17:00,
2013-03-08 01:23:00,32.2,20.6,17.72,NNE,24,0.0,0.0,62,0.00,,OVC004,0.00,VWS V14.00,2013-03-08 09:23:00,
2013-03-08 01:28:00,32.0,20.5,17.72,NNE,24,0.0,0.0,62,0.00,,OVC004,0.00,VWS V14.00,2013-03-08 09:28:00,
2013-03-08 01:33:00,31.8,20.3,17.72,NNE,24,0.0,0.0,62,0.00,,OVC004,0.00,VWS V14.00,2013-03-08 09:33:00,
2013-03-08 01:38:00,31.6,20.1,17.72,NNE,24,0.0,0.0,62,0.00,,OVC004,0.00,VWS V14.00,2013-03-08 09:38:00,
2013-03-08 01:44:00,31.8,20.3,17.72,NNE,24,0.0,0.0,62,0.00,,OVC004,0.00,VWS V14.00,2013-03-08 09:44:00,
2013-03-08 01:49:00,31.8,20.3,17.72,NNE,24,0.0,0.0,62,0.00,,OVC004,0.00,VWS V14.00,2013-03-08 09:49:00,
2013-03-08 01:54:00,31.8,20.3,17.72,NNE,24,0.0,0.0,62,0.00,,OVC004,0.00,VWS V14.00,2013-03-08 09:54:00,
2013-03-08 01:59:00,31.6,20.1,17.72,NNE,24,0.0,0.0,62,0.00,,OVC004,0.00,VWS V14.00,2013-03-08 09:59:00,
2013-03-08 02:05:00,31.6,20.5,17.72,NNE,24,0.0,0.0,63,0.00,,OVC004,0.00,VWS V14.00,2013-03-08 10:05:00,
2013-03-08 02:10:00,31.6,20.5,17.72,NNE,24,0.0,0.0,63,0.00,,OVC004,0.00,VWS V14.00,2013-03-08 10:10:00,
2013-03-08 02:16:00,31.5,20.3,17.72,NNE,24,0.0,0.0,63,0.00,,OVC004,0.00,VWS V14.00,2013-03-08 10:16:00,
2013-03-08 02:22:00,31.3,20.2,17.72,NNE,24,0.0,0.0,63,0.00,,OVC004,0.00,VWS V14.00,2013-03-08 10:22:00,
2013-03-08 02:27:00,31.1,20.0,17.72,NNE,24,0.0,0.0,63,0.00,,OVC004,0.00,VWS V14.00,2013-03-08 10:27:00,
2013-03-08 02:33:00,30.9,19.8,17.72,NNE,24,0.0,0.0,63,0.00,,OVC004,0.00,VWS V14.00,2013-03-08 10:33:00,
2013-03-08 02:38:00,30.7,19.6,17.72,NNE,24,0.0,0.0,63,0.00,,OVC004,0.00,VWS V14.00,2013-03-08 10:38:00,
2013-03-08 02:44:00,30.6,19.5,17.72,NNE,24,0.0,0.0,63,0.00,,OVC004,0.00,VWS V14.00,2013-03-08 10:44:00,
2013-03-08 02:50:00,30.6,19.5,17.72,NNE,24,0.0,0.0,63,0.00,,OVC004,0.00,VWS V14.00,2013-03-08 10:50:00,
2013-03-08 02:55:00,30.4,19.3,17.72,NNE,24,0.0,0.0,63,0.00,,OVC004,0.00,VWS V14.00,2013-03-08 10:55:00,
2013-03-08 03:00:00,30.2,19.5,17.72,NNE,24,0.0,0.0,64,0.00,,OVC004,0.00,VWS V14.00,2013-03-08 11:00:00,
2013-03-08 03:05:00,30.2,19.5,17.72,NNE,24,0.0,0.0,64,0.00,,,0.00,VWS V14.00,2013-03-08 11:05:00,
2013-03-08 03:10:00,30.2,19.5,17.72,NNE,24,0.0,0.0,64,0.00,,,0.00,VWS V14.00,2013-03-08 11:10:00,
2013-03-08 03:16:00,30.4,19.7,17.72,NNE,24,0.0,0.0,64,0.00,,,0.00,VWS V14.00,2013-03-08 11:16:00,
2013-03-08 03:21:00,30.4,19.7,17.72,NNE,24,0.0,0.0,64,0.00,,,0.00,VWS V14.00,2013-03-08 11:21:00,
2013-03-08 03:26:00,30.4,19.7,17.72,NNE,24,0.0,0.0,64,0.00,,,0.00,VWS V14.00,2013-03-08 11:26:00,
2013-03-08 03:32:00,30.2,19.9,17.72,NNE,24,0.0,0.0,65,0.00,,,0.00,VWS V14.00,2013-03-08 11:32:00,
2013-03-08 03:37:00,30.2,19.9,17.72,NNE,24,0.0,0.0,65,0.00,,,0.00,VWS V14.00,2013-03-08 11:37:00,
2013-03-08 03:43:00,30.0,19.7,17.72,NNE,24,0.0,0.0,65,0.00,,,0.00,VWS V14.00,2013-03-08 11:43:00,
2013-03-08 03:48:00,29.8,19.5,17.72,NNE,24,0.0,0.0,65,0.00,,,0.00,VWS V14.00,2013-03-08 11:48:00,
2013-03-08 03:53:00,29.8,19.5,17.72,NNE,24,0.0,0.0,65,0.00,,,0.00,VWS V14.00,2013-03-08 11:53:00,
2013-03-08 03:58:00,29.8,19.5,17.72,NNE,24,0.0,0.0,65,0.00,,,0.00,VWS V14.00,2013-03-08 11:58:00,
2013-03-08 04:04:00,29.7,19.4,17.72,NNE,24,0.0,0.0,65,0.00,,,0.00,VWS V14.00,2013-03-08 12:04:00,
2013-03-08 04:09:00,29.7,19.4,17.72,NNE,24,0.0,0.0,65,0.00,,,0.00,VWS V14.00,2013-03-08 12:09:00,
2013-03-08 04:14:00,29.8,19.5,17.72,NNE,24,0.0,0.0,65,0.00,,,0.00,VWS V14.00,2013-03-08 12:14:00,
2013-03-08 04:19:00,29.8,19.9,17.72,NNE,24,0.0,0.0,66,0.00,,,0.00,VWS V14.00,2013-03-08 12:19:00,
2013-03-08 04:25:00,30.0,20.0,17.72,NNE,24,0.0,0.0,66,0.00,,,0.00,VWS V14.00,2013-03-08 12:25:00,
2013-03-08 04:30:00,30.2,20.2,17.72,NNE,24,0.0,0.0,66,0.00,,,0.00,VWS V14.00,2013-03-08 12:30:00,
2013-03-08 04:36:00,30.2,20.2,17.72,NNE,24,0.0,0.0,66,0.00,,,0.00,VWS V14.00,2013-03-08 12:36:00,
2013-03-08 04:42:00,30.2,20.2,17.72,NNE,24,0.0,0.0,66,0.00,,,0.00,VWS V14.00,2013-03-08 12:42:00,
2013-03-08 04:47:00,30.2,20.2,17.72,NNE,24,0.0,0.0,66,0.00,,,0.00,VWS V14.00,2013-03-08 12:47:00,
2013-03-08 04:53:00,30.0,20.0,17.72,NNE,24,0.0,0.0,66,0.00,,,0.00,VWS V14.00,2013-03-08 12:53:00,
2013-03-08 04:58:00,29.8,19.9,17.72,NNE,24,0.0,0.0,66,0.00,,,0.00,VWS V14.00,2013-03-08 12:58:00,
2013-03-08 05:04:00,29.7,19.7,17.72,NNE,24,0.0,0.0,66,0.00,,OVC002,0.00,VWS V14.00,2013-03-08 13:04:00,
2013-03-08 05:10:00,29.5,19.5,17.72,NNE,24,0.0,0.0,66,0.00,,OVC002,0.00,VWS V14.00,2013-03-08 13:10:00,
2013-03-08 05:15:00,29.5,19.5,17.72,NNE,24,0.0,0.0,66,0.00,,OVC002,0.00,VWS V14.00,2013-03-08 13:15:00,
2013-03-08 05:21:00,29.5,19.5,17.72,NNE,24,0.0,0.0,66,0.00,,OVC002,0.00,VWS V14.00,2013-03-08 13:21:00,
2013-03-08 05:26:00,29.5,19.5,17.72,NNE,24,0.0,0.0,66,0.00,,OVC002,0.00,VWS V14.00,2013-03-08 13:26:00,
2013-03-08 05:32:00,29.5,19.5,17.72,NNE,24,0.0,0.0,66,0.00,,OVC002,0.00,VWS V14.00,2013-03-08 13:32:00,
2013-03-08 05:38:00,29.5,19.5,17.72,NNE,24,0.0,0.0,66,0.00,,OVC002,0.00,VWS V14.00,2013-03-08 13:38:00,
2013-03-08 05:43:00,29.5,19.5,17.72,NNE,24,0.0,0.0,66,0.00,,OVC002,0.00,VWS V14.00,2013-03-08 13:43:00,
2013-03-08 05:49:00,29.5,19.9,17.72,NNE,24,0.0,0.0,67,0.00,,OVC002,0.00,VWS V14.00,2013-03-08 13:49:00,
2013-03-08 05:54:00,29.5,19.9,17.72,NNE,24,0.0,0.0,67,0.00,,OVC002,0.00,VWS V14.00,2013-03-08 13:54:00,
2013-03-08 06:00:00,29.5,19.9,17.72,NNE,24,0.0,0.0,67,0.00,,OVC002,0.00,VWS V14.00,2013-03-08 14:00:00,
2013-03-08 06:05:00,29.3,19.7,17.72,NNE,24,0.0,0.0,67,0.00,,OVC004,0.00,VWS V14.00,2013-03-08 14:05:00,
2013-03-08 06:11:00,29.1,19.5,17.72,NNE,24,0.0,0.0,67,0.00,,OVC004,0.00,VWS V14.00,2013-03-08 14:11:00,
2013-03-08 06:17:00,29.1,19.5,17.72,NNE,24,0.0,0.0,67,0.00,,OVC004,0.00,VWS V14.00,2013-03-08 14:17:00,
2013-03-08 06:22:00,28.9,19.4,17.72,NNE,24,0.0,0.0,67,0.00,,OVC004,0.00,VWS V14.00,2013-03-08 14:22:00,
2013-03-08 06:28:00,28.9,19.4,17.72,NNE,24,0.0,0.0,67,0.00,,OVC004,0.00,VWS V14.00,2013-03-08 14:28:00,
2013-03-08 06:34:00,28.8,19.2,17.72,NNE,24,0.0,0.0,67,0.00,,OVC004,0.00,VWS V14.00,2013-03-08 14:34:00,
2013-03-08 06:39:00,28.8,19.2,17.72,NNE,24,0.0,0.0,67,0.00,,OVC004,0.00,VWS V14.00,2013-03-08 14:39:00,
2013-03-08 06:45:00,28.8,19.2,17.72,NNE,24,0.0,0.0,67,0.00,,OVC004,0.00,VWS V14.00,2013-03-08 14:45:00,
2013-03-08 06:50:00,28.8,19.2,17.72,NNE,24,0.0,0.0,67,0.00,,OVC004,0.00,VWS V14.00,2013-03-08 14:50:00,
2013-03-08 06:56:00,28.8,19.5,17.72,NNE,24,0.0,0.0,68,0.00,,OVC004,0.00,VWS V14.00,2013-03-08 14:56:00,
2013-03-08 07:02:00,28.9,19.7,17.72,NNE,24,0.0,0.0,68,0.00,,OVC004,0.00,VWS V14.00,2013-03-08 15:02:00,
2013-03-08 07:07:00,29.3,20.1,17.72,NNE,24,0.0,0.0,68,0.00,,OVC004,0.00,VWS V14.00,2013-03-08 15:07:00,
2013-03-08 07:13:00,29.7,20.4,17.72,NNE,24,0.0,0.0,68,0.00,,OVC004,0.00,VWS V14.00,2013-03-08 15:13:00,
2013-03-08 07:18:00,30.0,20.8,17.72,NNE,24,0.0,0.0,68,0.00,,OVC004,0.00,VWS V14.00,2013-03-08 15:18:00,
2013-03-08 07:24:00,30.6,21.3,17.72,NNE,24,0.0,0.0,68,0.00,,OVC004,0.00,VWS V14.00,2013-03-08 15:24:00,
2013-03-08 07:30:00,30.9,21.6,17.72,NNE,24,0.0,0.0,68,0.00,,OVC004,0.00,VWS V14.00,2013-03-08 15:30:00,
2013-03-08 07:35:00,31.3,22.0,17.72,NNE,24,0.0,0.0,68,0.00,,OVC004,0.00,VWS V14.00,2013-03-08 15:35:00,
2013-03-08 07:41:00,31.6,22.6,17.72,NNE,24,0.0,0.0,69,0.00,,OVC004,0.00,VWS V14.00,2013-03-08 15:41:00,
2013-03-08 07:46:00,32.2,23.2,17.72,NNE,24,0.0,0.0,69,0.00,,OVC004,0.00,VWS V14.00,2013-03-08 15:46:00,
2013-03-08 07:51:00,32.4,23.3,17.72,NNE,24,0.0,0.0,69,0.00,,OVC004,0.00,VWS V14.00,2013-03-08 15:51:00,
2013-03-08 07:56:00,32.7,23.7,17.72,NNE,24,0.0,0.0,69,0.00,,OVC004,0.00,VWS V14.00,2013-03-08 15:56:00,
2013-03-08 08:02:00,32.9,23.9,17.72,NNE,24,0.0,0.0,69,0.00,,,0.00,VWS V14.00,2013-03-08 16:02:00,
2013-03-08 08:07:00,33.3,24.2,17.72,NNE,24,0.0,0.0,69,0.00,,,0.00,VWS V14.00,2013-03-08 16:07:00,
2013-03-08 08:12:00,33.3,24.2,17.72,NNE,24,0.0,0.0,69,0.00,,,0.00,VWS V14.00,2013-03-08 16:12:00,
2013-03-08 08:17:00,33.6,24.5,17.72,NNE,24,0.0,0.0,69,0.00,,,0.00,VWS V14.00,2013-03-08 16:17:00,
2013-03-08 08:23:00,33.8,24.7,17.72,NNE,24,0.0,0.0,69,0.00,,,0.00,VWS V14.00,2013-03-08 16:23:00,
2013-03-08 08:28:00,34.0,24.9,17.72,NNE,24,0.0,0.0,69,0.00,,,0.00,VWS V14.00,2013-03-08 16:28:00,
2013-03-08 08:33:00,34.3,25.6,17.72,NNE,24,0.0,0.0,70,0.00,,,0.00,VWS V14.00,2013-03-08 16:33:00,
2013-03-08 08:39:00,34.7,25.9,17.72,NNE,24,0.0,0.0,70,0.00,,,0.00,VWS V14.00,2013-03-08 16:39:00,
2013-03-08 08:45:00,34.9,26.1,17.72,NNE,24,0.0,0.0,70,0.00,,,0.00,VWS V14.00,2013-03-08 16:45:00,
2013-03-08 08:50:00,35.1,26.3,17.72,NNE,24,0.0,0.0,70,0.00,,,0.00,VWS V14.00,2013-03-08 16:50:00,
2013-03-08 08:55:00,35.2,26.5,17.72,NNE,24,0.0,0.0,70,0.00,,,0.00,VWS V14.00,2013-03-08 16:55:00,
2013-03-08 09:01:00,35.6,26.8,17.72,NNE,24,0.0,0.0,70,0.00,,,0.00,VWS V14.00,2013-03-08 17:01:00,
2013-03-08 09:06:00,35.8,27.0,17.72,NNE,24,0.0,0.0,70,0.00,,OVC004,0.00,VWS V14.00,2013-03-08 17:06:00,
2013-03-08 09:12:00,36.0,27.1,17.72,NNE,24,0.0,0.0,70,0.00,,OVC004,0.00,VWS V14.00,2013-03-08 17:12:00,
2013-03-08 09:17:00,36.1,27.3,17.72,NNE,24,0.0,0.0,70,0.00,,OVC004,0.00,VWS V14.00,2013-03-08 17:17:00,
2013-03-08 09:23:00,36.3,27.5,17.72,NNE,24,0.0,0.0,70,0.00,,OVC004,0.00,VWS V14.00,2013-03-08 17:23:00,
2013-03-08 09:29:00,36.7,27.8,17.72,NNE,24,0.0,2.7,70,0.00,,OVC004,0.00,VWS V14.00,2013-03-08 17:29:00,
2013-03-08 09:34:00,36.9,28.0,17.72,NNE,24,0.0,0.0,70,0.00,,OVC004,0.00,VWS V14.00,2013-03-08 17:34:00,
2013-03-08 09:40:00,37.4,28.5,17.72,SSE,157,0.0,3.1,70,0.00,,OVC004,0.00,VWS V14.00,2013-03-08 17:40:00,
2013-03-08 09:45:00,37.6,28.7,17.72,SSE,157,0.0,0.0,70,0.00,,OVC004,0.00,VWS V14.00,2013-03-08 17:45:00,
2013-03-08 09:51:00,38.1,29.2,17.72,SSE,157,0.0,0.0,70,0.00,,OVC004,0.00,VWS V14.00,2013-03-08 17:51:00,
2013-03-08 09:57:00,38.5,29.6,17.72,SW,226,0.0,3.6,70,0.00,,OVC004,0.00,VWS V14.00,2013-03-08 17:57:00,
2013-03-08 10:02:00,38.8,30.3,17.72,NNW,344,0.0,2.7,71,0.00,,OVC004,0.00,VWS V14.00,2013-03-08 18:02:00,
2013-03-08 10:08:00,39.2,30.2,17.72,WSW,240,2.7,2.7,70,0.00,,OVC004,0.00,VWS V14.00,2013-03-08 18:08:00,
2013-03-08 10:13:00,39.7,31.1,17.72,NW,320,2.7,3.6,71,0.00,,OVC004,0.00,VWS V14.00,2013-03-08 18:13:00,
2013-03-08 10:19:00,40.3,31.6,17.72,SW,232,0.0,0.0,71,0.00,,OVC004,0.00,VWS V14.00,2013-03-08 18:19:00,
2013-03-08 10:24:00,40.5,31.8,17.72,SSW,206,3.1,3.1,71,0.00,,OVC004,0.00,VWS V14.00,2013-03-08 18:24:00,
2013-03-08 10:30:00,41.0,32.3,17.72,NW,316,0.0,0.0,71,0.00,,OVC004,0.00,VWS V14.00,2013-03-08 18:30:00,
2013-03-08 10:35:00,41.7,33.0,17.72,West,266,0.0,2.7,71,0.00,,OVC004,0.00,VWS V14.00,2013-03-08 18:35:00,
2013-03-08 10:40:00,42.3,33.5,17.72,SW,221,0.0,0.0,71,0.00,,OVC004,0.00,VWS V14.00,2013-03-08 18:40:00,
2013-03-08 10:46:00,43.0,33.9,17.72,SW,220,3.1,3.6,70,0.00,,OVC004,0.00,VWS V14.00,2013-03-08 18:46:00,
2013-03-08 10:51:00,43.7,34.6,17.72,NNW,341,2.7,4.0,70,0.00,,OVC004,0.00,VWS V14.00,2013-03-08 18:51:00,
2013-03-08 10:57:00,44.6,35.4,17.72,NNW,341,2.2,2.7,70,0.00,,OVC004,0.00,VWS V14.00,2013-03-08 18:57:00,
2013-03-08 11:02:00,45.5,36.3,17.72,SSW,206,3.1,3.6,70,0.00,,FEW004,0.00,VWS V14.00,2013-03-08 19:02:00,
2013-03-08 11:08:00,46.6,37.0,17.72,NW,324,0.0,4.0,69,0.00,,FEW004,0.00,VWS V14.00,2013-03-08 19:08:00,
2013-03-08 11:13:00,47.3,37.3,17.72,SW,214,3.6,4.9,68,0.00,,FEW004,0.00,VWS V14.00,2013-03-08 19:13:00,
2013-03-08 11:19:00,48.2,37.4,17.72,NW,310,3.6,4.9,66,0.00,,FEW004,0.00,VWS V14.00,2013-03-08 19:19:00,
2013-03-08 11:25:00,48.9,36.1,17.72,WSW,237,2.2,2.7,61,0.00,,FEW004,0.00,VWS V14.00,2013-03-08 19:25:00,
2013-03-08 11:30:00,49.5,34.9,17.72,North,5,2.2,6.3,57,0.00,,FEW004,0.00,VWS V14.00,2013-03-08 19:30:00,
2013-03-08 11:36:00,49.8,32.4,17.72,SSW,213,3.6,3.6,51,0.00,,FEW004,0.00,VWS V14.00,2013-03-08 19:36:00,
2013-03-08 11:41:00,50.0,28.4,17.72,SSW,206,3.1,4.0,43,0.00,,FEW004,0.00,VWS V14.00,2013-03-08 19:41:00,
2013-03-08 11:46:00,50.2,26.8,17.72,South,171,3.6,3.6,40,0.00,,FEW004,0.00,VWS V14.00,2013-03-08 19:46:00,
2013-03-08 11:51:00,50.7,26.7,17.72,NNW,330,3.6,4.0,39,0.00,,FEW004,0.00,VWS V14.00,2013-03-08 19:51:00,
2013-03-08 11:57:00,51.1,25.7,17.72,West,267,3.6,6.3,37,0.00,,FEW004,0.00,VWS V14.00,2013-03-08 19:57:00,
2013-03-08 12:02:00,51.3,25.9,17.72,NNW,327,3.6,3.6,37,0.00,,CLR,0.00,VWS V14.00,2013-03-08 20:02:00,
2013-03-08 12:08:00,52.0,25.9,17.72,NNW,343,3.6,3.6,36,0.00,,CLR,0.00,VWS V14.00,2013-03-08 20:08:00,
2013-03-08 12:14:00,51.8,22.1,17.72,NW,322,4.9,6.3,31,0.00,,CLR,0.00,VWS V14.00,2013-03-08 20:14:00,
2013-03-08 12:19:00,52.2,22.5,17.72,NNW,342,3.6,3.6,31,0.00,,CLR,0.00,VWS V14.00,2013-03-08 20:19:00,
2013-03-08 12:25:00,52.7,22.2,17.72,North,350,4.0,4.0,30,0.00,,CLR,0.00,VWS V14.00,2013-03-08 20:25:00,
2013-03-08 12:30:00,52.9,21.5,17.72,North,4,3.6,4.0,29,0.00,,CLR,0.00,VWS V14.00,2013-03-08 20:30:00,
2013-03-08 12:36:00,53.1,21.7,17.72,WNW,285,2.7,4.0,29,0.00,,CLR,0.00,VWS V14.00,2013-03-08 20:36:00,
2013-03-08 12:42:00,52.9,21.5,17.72,North,357,2.7,3.1,29,0.00,,CLR,0.00,VWS V14.00,2013-03-08 20:42:00,
2013-03-08 12:47:00,53.1,21.7,17.72,WSW,244,3.1,3.1,29,0.00,,CLR,0.00,VWS V14.00,2013-03-08 20:47:00,
2013-03-08 12:52:00,53.4,22.0,17.72,West,281,0.0,4.0,29,0.00,,CLR,0.00,VWS V14.00,2013-03-08 20:52:00,
2013-03-08 12:57:00,53.6,21.3,17.72,NE,43,0.0,3.6,28,0.00,,CLR,0.00,VWS V14.00,2013-03-08 20:57:00,
2013-03-08 13:03:00,54.0,21.6,17.72,NW,318,2.7,4.0,28,0.00,,CLR,0.00,VWS V14.00,2013-03-08 21:03:00,
2013-03-08 13:08:00,54.5,22.1,17.72,North,7,2.2,5.8,28,0.00,,CLR,0.00,VWS V14.00,2013-03-08 21:08:00,
2013-03-08 13:14:00,54.7,21.4,17.72,WNW,295,3.1,3.1,27,0.00,,CLR,0.00,VWS V14.00,2013-03-08 21:14:00,
2013-03-08 13:19:00,55.0,21.7,17.72,West,267,2.2,5.8,27,0.00,,CLR,0.00,VWS V14.00,2013-03-08 21:19:00,
2013-03-08 13:25:00,54.9,21.5,17.72,West,270,2.7,5.4,27,0.00,,CLR,0.00,VWS V14.00,2013-03-08 21:25:00,
2013-03-08 13:31:00,54.9,21.5,17.72,NNW,338,3.6,3.6,27,0.00,,CLR,0.00,VWS V14.00,2013-03-08 21:31:00,
2013-03-08 13:36:00,55.4,21.1,17.72,NE,44,3.1,3.1,26,0.00,,CLR,0.00,VWS V14.00,2013-03-08 21:36:00,
2013-03-08 13:42:00,55.4,21.1,17.72,NW,326,2.2,3.1,26,0.00,,CLR,0.00,VWS V14.00,2013-03-08 21:42:00,
2013-03-08 13:47:00,55.2,21.8,17.72,NW,312,5.8,5.8,27,0.00,,CLR,0.00,VWS V14.00,2013-03-08 21:47:00,
2013-03-08 13:53:00,54.5,21.2,17.72,SSW,212,4.9,7.6,27,0.00,,CLR,0.00,VWS V14.00,2013-03-08 21:53:00,
2013-03-08 13:58:00,54.0,20.8,17.72,NW,312,3.6,5.8,27,0.00,,CLR,0.00,VWS V14.00,2013-03-08 21:58:00,
2013-03-08 14:04:00,53.8,21.5,17.72,NNW,330,5.8,5.8,28,0.00,,CLR,0.00,VWS V14.00,2013-03-08 22:04:00,
2013-03-08 14:10:00,53.8,21.5,17.72,NW,307,3.6,4.9,28,0.00,,CLR,0.00,VWS V14.00,2013-03-08 22:10:00,
2013-03-08 14:15:00,53.6,21.3,17.72,NW,305,3.6,5.8,28,0.00,,CLR,0.00,VWS V14.00,2013-03-08 22:15:00,
2013-03-08 14:21:00,53.8,21.5,17.72,West,273,3.1,3.6,28,0.00,,CLR,0.00,VWS V14.00,2013-03-08 22:21:00,
2013-03-08 14:26:00,54.1,21.8,17.72,South,173,5.8,7.6,28,0.00,,CLR,0.00,VWS V14.00,2013-03-08 22:26:00,
2013-03-08 14:32:00,54.1,21.8,17.72,NW,325,5.4,5.4,28,0.00,,CLR,0.00,VWS V14.00,2013-03-08 22:32:00,
2013-03-08 14:37:00,54.0,21.6,17.72,SSW,196,2.7,2.7,28,0.00,,CLR,0.00,VWS V14.00,2013-03-08 22:37:00,
2013-03-08 14:43:00,54.3,21.9,17.72,NNW,327,2.7,5.4,28,0.00,,CLR,0.00,VWS V14.00,2013-03-08 22:43:00,
2013-03-08 14:49:00,54.1,21.8,17.72,SW,232,5.4,5.8,28,0.00,,CLR,0.00,VWS V14.00,2013-03-08 22:49:00,
2013-03-08 14:54:00,54.0,21.6,17.72,North,353,3.1,5.8,28,0.00,,CLR,0.00,VWS V14.00,2013-03-08 22:54:00,
2013-03-08 15:00:00,53.6,21.3,17.72,NW,310,2.7,4.9,28,0.00,,CLR,0.00,VWS V14.00,2013-03-08 23:00:00,
2013-03-08 15:06:00,53.2,21.0,17.72,South,190,3.1,5.4,28,0.00,,CLR,0.00,VWS V14.00,2013-03-08 23:06:00,
2013-03-08 15:11:00,53.2,21.0,17.72,NW,316,3.6,5.4,28,0.00,,CLR,0.00,VWS V14.00,2013-03-08 23:11:00,
2013-03-08 15:17:00,53.4,21.1,17.72,NW,315,2.7,4.5,28,0.00,,CLR,0.00,VWS V14.00,2013-03-08 23:17:00,
2013-03-08 15:22:00,53.4,21.1,17.72,North,357,3.1,5.8,28,0.00,,CLR,0.00,VWS V14.00,2013-03-08 23:22:00,
2013-03-08 15:29:00,53.4,21.1,17.72,West,259,3.6,4.0,28,0.00,,CLR,0.00,VWS V14.00,2013-03-08 23:29:00,
2013-03-08 15:35:00,53.6,21.3,17.72,North,4,3.1,4.9,28,0.00,,CLR,0.00,VWS V14.00,2013-03-08 23:35:00,
2013-03-08 15:41:00,53.6,21.3,17.72,WNW,287,5.4,5.4,28,0.00,,CLR,0.00,VWS V14.00,2013-03-08 23:41:00,
2013-03-08 15:46:00,53.6,21.3,17.72,NNW,327,5.4,5.4,28,0.00,,CLR,0.00,VWS V14.00,2013-03-08 23:46:00,
2013-03-08 15:52:00,53.6,21.3,17.72,North,6,3.1,4.0,28,0.00,,CLR,0.00,VWS V14.00,2013-03-08 23:52:00,
2013-03-08 15:57:00,53.6,21.3,17.72,WNW,293,6.3,6.3,28,0.00,,CLR,0.00,VWS V14.00,2013-03-08 23:57:00,
2013-03-08 16:02:00,53.1,20.8,17.72,SW,216,3.6,4.0,28,0.00,,CLR,0.00,VWS V14.00,2013-03-09 00:02:00,
2013-03-08 16:07:00,52.9,20.7,17.72,SW,218,6.3,6.3,28,0.00,,CLR,0.00,VWS V14.00,2013-03-09 00:07:00,
2013-03-08 16:13:00,52.7,20.5,17.72,SSW,206,3.1,4.5,28,0.00,,CLR,0.00,VWS V14.00,2013-03-09 00:13:00,
2013-03-08 16:18:00,52.5,21.2,17.72,NNE,18,5.8,5.8,29,0.00,,CLR,0.00,VWS V14.00,2013-03-09 00:18:00,
2013-03-08 16:24:00,52.2,20.9,17.72,SSW,209,2.2,6.3,29,0.00,,CLR,0.00,VWS V14.00,2013-03-09 00:24:00,
2013-03-08 16:30:00,51.6,20.4,17.72,NW,322,7.6,7.6,29,0.00,,CLR,0.00,VWS V14.00,2013-03-09 00:30:00,
2013-03-08 16:35:00,51.4,20.3,17.72,NW,318,3.6,4.0,29,0.00,,CLR,0.00,VWS V14.00,2013-03-09 00:35:00,
2013-03-08 16:41:00,51.3,20.1,17.72,WNW,299,3.1,5.4,29,0.00,,CLR,0.00,VWS V14.00,2013-03-09 00:41:00,
2013-03-08 16:46:00,51.1,20.8,17.72,SSW,205,2.7,4.0,30,0.00,,CLR,0.00,VWS V14.00,2013-03-09 00:46:00,
2013-03-08 16:51:00,50.9,20.6,17.72,NW,326,3.6,4.0,30,0.00,,CLR,0.00,VWS V14.00,2013-03-09 00:51:00,
2013-03-08 16:56:00,50.5,20.3,17.72,West,281,3.1,5.4,30,0.00,,CLR,0.00,VWS V14.00,2013-03-09 00:56:00,
2013-03-08 17:02:00,50.2,20.0,17.72,WNW,283,2.2,3.1,30,0.00,,CLR,0.00,VWS V14.00,2013-03-09 01:02:00,
2013-03-08 17:07:00,50.2,20.0,17.72,WNW,283,2.7,4.9,30,0.00,,CLR,0.00,VWS V14.00,2013-03-09 01:07:00,
2013-03-08 17:13:00,50.0,19.8,17.72,WNW,292,4.9,5.4,30,0.00,,CLR,0.00,VWS V14.00,2013-03-09 01:13:00,
2013-03-08 17:19:00,49.6,20.3,17.72,WNW,287,3.6,5.4,31,0.00,,CLR,0.00,VWS V14.00,2013-03-09 01:19:00,
2013-03-08 17:24:00,49.3,19.9,17.72,NNW,348,2.7,4.9,31,0.00,,CLR,0.00,VWS V14.00,2013-03-09 01:24:00,
2013-03-08 17:30:00,48.9,20.4,17.72,NW,324,2.7,4.0,32,0.00,,CLR,0.00,VWS V14.00,2013-03-09 01:30:00,
2013-03-08 17:35:00,48.7,20.2,17.72,WNW,299,2.7,4.0,32,0.00,,CLR,0.00,VWS V14.00,2013-03-09 01:35:00,
2013-03-08 17:40:00,48.4,19.9,17.72,NNW,327,4.0,4.0,32,0.00,,CLR,0.00,VWS V14.00,2013-03-09 01:40:00,
2013-03-08 17:45:00,48.0,20.3,17.72,West,266,4.5,4.5,33,0.00,,CLR,0.00,VWS V14.00,2013-03-09 01:45:00,
2013-03-08 17:51:00,47.7,20.7,17.72,WNW,294,2.7,4.9,34,0.00,,CLR,0.00,VWS V14.00,2013-03-09 01:51:00,
2013-03-08 17:56:00,47.3,21.0,17.72,NW,305,2.7,2.7,35,0.00,,CLR,0.00,VWS V14.00,2013-03-09 01:56:00,
2013-03-08 18:01:00,46.9,21.4,17.72,West,281,3.6,4.9,36,0.00,,CLR,0.00,VWS V14.00,2013-03-09 02:01:00,
2013-03-08 18:06:00,46.8,21.9,17.72,NW,323,2.2,3.1,37,0.00,,CLR,0.00,VWS V14.00,2013-03-09 02:06:00,
2013-03-08 18:12:00,46.2,22.0,17.72,NW,316,0.0,4.0,38,0.00,,CLR,0.00,VWS V14.00,2013-03-09 02:12:00,
2013-03-08 18:17:00,46.0,21.9,17.72,NW,322,0.0,4.0,38,0.00,,CLR,0.00,VWS V14.00,2013-03-09 02:17:00,
2013-03-08 18:23:00,45.5,21.4,17.72,NW,307,2.7,2.7,38,0.00,,CLR,0.00,VWS V14.00,2013-03-09 02:23:00,
2013-03-08 18:29:00,45.3,21.8,17.72,WNW,297,0.0,2.2,39,0.00,,CLR,0.00,VWS V14.00,2013-03-09 02:29:00,
2013-03-08 18:34:00,45.0,21.5,17.72,WNW,297,0.0,0.0,39,0.00,,CLR,0.00,VWS V14.00,2013-03-09 02:34:00,
2013-03-08 18:40:00,44.2,20.9,17.72,WNW,297,0.0,0.0,39,0.00,,CLR,0.00,VWS V14.00,2013-03-09 02:40:00,
2013-03-08 18:45:00,43.9,21.1,17.72,WNW,297,0.0,0.0,40,0.00,,CLR,0.00,VWS V14.00,2013-03-09 02:45:00,
2013-03-08 18:51:00,43.3,20.6,17.72,NW,314,2.7,4.0,40,0.00,,CLR,0.00,VWS V14.00,2013-03-09 02:51:00,
2013-03-08 18:57:00,43.2,21.1,17.72,NW,312,0.0,0.0,41,0.00,,CLR,0.00,VWS V14.00,2013-03-09 02:57:00,
2013-03-08 19:03:00,42.8,20.8,17.72,NNW,342,0.0,2.2,41,0.00,,CLR,0.00,VWS V14.00,2013-03-09 03:03:00,
2013-03-08 19:09:00,42.6,21.1,17.72,NNW,334,0.0,0.0,42,0.00,,CLR,0.00,VWS V14.00,2013-03-09 03:09:00,
2013-03-08 19:15:00,42.4,21.5,17.72,NW,315,0.0,2.2,43,0.00,,CLR,0.00,VWS V14.00,2013-03-09 03:15:00,
2013-03-08 19:21:00,42.3,21.4,17.72,NW,317,2.2,2.7,43,0.00,,CLR,0.00,VWS V14.00,2013-03-09 03:21:00,
2013-03-08 19:26:00,42.1,21.8,17.72,WNW,301,2.7,2.7,44,0.00,,CLR,0.00,VWS V14.00,2013-03-09 03:26:00,
2013-03-08 19:31:00,41.9,21.6,17.72,WNW,301,0.0,0.0,44,0.00,,CLR,0.00,VWS V14.00,2013-03-09 03:31:00,
2013-03-08 19:37:00,41.5,21.8,17.72,WNW,301,0.0,0.0,45,0.00,,CLR,0.00,VWS V14.00,2013-03-09 03:37:00,
2013-03-08 19:43:00,41.2,21.5,17.72,WNW,301,0.0,0.0,45,0.00,,CLR,0.00,VWS V14.00,2013-03-09 03:43:00,
2013-03-08 19:48:00,41.0,21.3,17.72,WNW,301,0.0,0.0,45,0.00,,CLR,0.00,VWS V14.00,2013-03-09 03:48:00,
2013-03-08 19:54:00,40.5,21.3,17.72,WNW,301,0.0,0.0,46,0.00,,CLR,0.00,VWS V14.00,2013-03-09 03:54:00,
2013-03-08 19:59:00,40.3,21.2,17.72,WNW,301,0.0,0.0,46,0.00,,CLR,0.00,VWS V14.00,2013-03-09 03:59:00,
2013-03-08 20:05:00,39.6,20.5,17.72,WNW,301,0.0,0.0,46,0.00,,CLR,0.00,VWS V14.00,2013-03-09 04:05:00,
2013-03-08 20:10:00,39.2,20.2,17.72,WNW,301,0.0,0.0,46,0.00,,CLR,0.00,VWS V14.00,2013-03-09 04:10:00,
2013-03-08 20:15:00,38.7,20.2,17.72,WNW,301,0.0,0.0,47,0.00,,CLR,0.00,VWS V14.00,2013-03-09 04:15:00,
2013-03-08 20:21:00,38.3,19.9,17.72,WNW,301,0.0,0.0,47,0.00,,CLR,0.00,VWS V14.00,2013-03-09 04:21:00,
2013-03-08 20:26:00,37.9,20.0,17.72,WNW,301,0.0,0.0,48,0.00,,CLR,0.00,VWS V14.00,2013-03-09 04:26:00,
2013-03-08 20:32:00,37.6,19.7,17.72,WNW,301,0.0,0.0,48,0.00,,CLR,0.00,VWS V14.00,2013-03-09 04:32:00,
2013-03-08 20:37:00,37.4,20.0,17.72,WNW,301,0.0,0.0,49,0.00,,CLR,0.00,VWS V14.00,2013-03-09 04:37:00,
2013-03-08 20:43:00,37.0,19.7,17.72,WNW,301,0.0,0.0,49,0.00,,CLR,0.00,VWS V14.00,2013-03-09 04:43:00,
2013-03-08 20:48:00,36.9,20.0,17.72,WNW,301,0.0,0.0,50,0.00,,CLR,0.00,VWS V14.00,2013-03-09 04:48:00,
2013-03-08 20:54:00,36.7,19.8,17.72,WNW,301,0.0,0.0,50,0.00,,CLR,0.00,VWS V14.00,2013-03-09 04:54:00,
2013-03-08 21:00:00,36.7,19.8,17.72,WNW,301,0.0,0.0,50,0.00,,CLR,0.00,VWS V14.00,2013-03-09 05:00:00,
2013-03-08 21:01:00,36.7,19.8,17.72,WNW,301,0.0,0.0,50,0.00,,CLR,0.00,VWS V14.00,2013-03-09 05:01:00,
2013-03-08 21:02:00,36.5,19.6,17.72,WNW,301,0.0,0.0,50,0.00,,CLR,0.00,VWS V14.00,2013-03-09 05:02:00,
2013-03-08 21:03:00,36.5,19.6,17.72,WNW,301,0.0,0.0,50,0.00,,CLR,0.00,VWS V14.00,2013-03-09 05:03:00,
2013-03-08 21:08:00,36.3,19.9,17.72,WNW,301,0.0,0.0,51,0.00,,CLR,0.00,VWS V14.00,2013-03-09 05:08:00,
2013-03-08 21:14:00,35.8,19.4,17.72,WNW,301,0.0,0.0,51,0.00,,CLR,0.00,VWS V14.00,2013-03-09 05:14:00,
2013-03-08 21:19:00,35.6,19.3,17.72,WNW,301,0.0,0.0,51,0.00,,CLR,0.00,VWS V14.00,2013-03-09 05:19:00,
2013-03-08 21:25:00,35.4,19.1,17.72,WNW,301,0.0,0.0,51,0.00,,CLR,0.00,VWS V14.00,2013-03-09 05:25:00,
2013-03-08 21:31:00,35.1,19.2,17.72,WNW,301,0.0,0.0,52,0.00,,CLR,0.00,VWS V14.00,2013-03-09 05:31:00,
2013-03-08 21:36:00,35.1,19.2,17.72,NNE,14,0.0,0.0,52,0.00,,CLR,0.00,VWS V14.00,2013-03-09 05:36:00,
2013-03-08 21:42:00,35.1,19.2,17.72,NNE,14,0.0,0.0,52,0.00,,CLR,0.00,VWS V14.00,2013-03-09 05:42:00,
2013-03-08 21:47:00,34.9,19.1,17.72,NNE,14,0.0,0.0,52,0.00,,CLR,0.00,VWS V14.00,2013-03-09 05:47:00,
2013-03-08 21:53:00,34.9,19.5,17.72,NNE,14,0.0,0.0,53,0.00,,CLR,0.00,VWS V14.00,2013-03-09 05:53:00,
2013-03-08 21:58:00,34.9,19.5,17.72,NNE,14,0.0,0.0,53,0.00,,CLR,0.00,VWS V14.00,2013-03-09 05:58:00,
2013-03-08 22:04:00,35.1,19.7,17.72,NNE,14,0.0,3.1,53,0.00,,CLR,0.00,VWS V14.00,2013-03-09 06:04:00,
2013-03-08 22:10:00,35.4,20.4,17.72,NNE,14,0.0,0.0,54,0.00,,CLR,0.00,VWS V14.00,2013-03-09 06:10:00,
2013-03-08 22:15:00,35.4,20.4,17.72,NNE,14,0.0,0.0,54,0.00,,CLR,0.00,VWS V14.00,2013-03-09 06:15:00,
2013-03-08 22:20:00,35.2,20.3,17.72,NNE,14,0.0,0.0,54,0.00,,CLR,0.00,VWS V14.00,2013-03-09 06:20:00,
2013-03-08 22:25:00,35.1,20.1,17.72,NNE,26,0.0,0.0,54,0.00,,CLR,0.00,VWS V14.00,2013-03-09 06:25:00,
2013-03-08 22:31:00,34.9,19.9,17.72,NNE,26,0.0,0.0,54,0.00,,CLR,0.00,VWS V14.00,2013-03-09 06:31:00,
2013-03-08 22:36:00,34.9,20.4,17.72,NNE,26,0.0,0.0,55,0.00,,CLR,0.00,VWS V14.00,2013-03-09 06:36:00,
2013-03-08 22:42:00,35.1,20.5,17.72,NNE,26,0.0,0.0,55,0.00,,CLR,0.00,VWS V14.00,2013-03-09 06:42:00,
2013-03-08 22:48:00,35.4,21.3,17.72,NNE,26,0.0,0.0,56,0.00,,CLR,0.00,VWS V14.00,2013-03-09 06:48:00,
2013-03-08 22:53:00,35.4,21.3,17.72,NNE,26,0.0,0.0,56,0.00,,CLR,0.00,VWS V14.00,2013-03-09 06:53:00,
2013-03-08 22:59:00,35.4,21.3,17.72,NNE,26,0.0,0.0,56,0.00,,CLR,0.00,VWS V14.00,2013-03-09 06:59:00,
2013-03-08 23:04:00,35.1,21.0,17.72,NNE,26,0.0,0.0,56,0.00,,CLR,0.00,VWS V14.00,2013-03-09 07:04:00,
2013-03-08 23:10:00,34.9,20.8,17.72,NNE,26,0.0,0.0,56,0.00,,CLR,0.00,VWS V14.00,2013-03-09 07:10:00,
2013-03-08 23:15:00,34.5,20.5,17.72,NNE,26,0.0,0.0,56,0.00,,CLR,0.00,VWS V14.00,2013-03-09 07:15:00,
2013-03-08 23:21:00,34.2,20.1,17.72,NNE,26,0.0,0.0,56,0.00,,CLR,0.00,VWS V14.00,2013-03-09 07:21:00,
2013-03-08 23:26:00,34.0,20.4,17.72,NNE,26,0.0,0.0,57,0.00,,CLR,0.00,VWS V14.00,2013-03-09 07:26:00,
2013-03-08 23:32:00,33.6,20.0,17.72,NNE,26,0.0,0.0,57,0.00,,CLR,0.00,VWS V14.00,2013-03-09 07:32:00,
2013-03-08 23:38:00,33.3,19.7,17.72,NNE,26,0.0,0.0,57,0.00,,CLR,0.00,VWS V14.00,2013-03-09 07:38:00,
2013-03-08 23:43:00,33.1,19.5,17.72,NNE,26,0.0,0.0,57,0.00,,CLR,0.00,VWS V14.00,2013-03-09 07:43:00,
2013-03-08 23:49:00,32.7,19.2,17.72,NNE,26,0.0,0.0,57,0.00,,CLR,0.00,VWS V14.00,2013-03-09 07:49:00,
2013-03-08 23:54:00,32.5,19.0,17.72,NNE,26,0.0,0.0,57,0.00,,CLR,0.00,VWS V14.00,2013-03-09 07:54:00,